Flag for Albania Weather past 2 weeks in Tirana, Albania

77 °F

Broken clouds.

Feels Like: 79 °F
Forecast: 62 / 70 °F
Wind: 5 mph from West

Location: Tirana Airport

Current Time: Oct 9, 2015 at 1:43:07 PM

Latest Report: Oct 9, 2015 at 1:20 PM

Visibility: N/A

Pressure: 30.04 "Hg

Humidity: 54%

Dew point: 59 °F

Location of TiranaLocation

Historic Weather in Tirana — Graph


Tirana temperature yesterday

Maximum temperature yesterday: 72 °F (at 3:20 PM)
Minimum temperature yesterday: 59 °F (at 6:50 AM)
Average temperature yesterday: 65 °F

Past Weeks' High & Low Weather Summary

High84 °F (Sep 24, 12:20 PM)100% (Oct 8, 6:50 AM)30.27 "Hg (Oct 8, 6:50 AM)
Low54 °F (Sep 26, 5:50 AM)26% (Oct 2, 3:20 PM)29.74 "Hg (Oct 7, 1:50 PM)
Average67 °F69%30.02 "Hg
* Reported Sep 24 12:20 PM — Oct 9 12:20 PM, Tirana, Weather by CustomWeather, © 2015

Note: Actual official high and low records may vary slightly from our data, if they occured in-between our weather recording intervals... More about our weather records


Tirana weather history for previous 24 hours

Time TempWeatherWind HumidityBarometerVisibility
12:20 PM
Fri, Oct 9
75 °FPartly sunny.No wind54%30.04 "HgN/A
11:50 AM70 °FPartly sunny.3 mph60%30.04 "HgN/A
11:20 AM72 °FBroken clouds.2 mph65%30.04 "HgN/A
10:50 AM70 °FBroken clouds.2 mph69%30.04 "HgN/A
10:20 AM70 °FLight rain. Broken clouds.3 mph73%30.04 "HgN/A
9:50 AM70 °FBroken clouds.2 mph69%30.04 "HgN/A
9:20 AM68 °FScattered clouds.5 mph73%30.04 "HgN/A
8:50 AM68 °FScattered clouds.5 mph78%30.04 "HgN/A
8:20 AM63 °FScattered clouds.6 mph94%30.04 "HgN/A
7:50 AM61 °FPartly sunny.3 mph94%30.01 "Hg5 mi
6:50 AM59 °FFog.3 mph94%30.01 "Hg2 mi
6:20 AM59 °FPassing clouds.3 mph94%30.01 "Hg5 mi
5:20 AM61 °FPassing clouds.5 mph94%30.01 "Hg5 mi
4:50 AM61 °FPassing clouds.3 mph94%30.01 "Hg5 mi
4:20 AM63 °FPassing clouds.8 mph88%30.01 "Hg5 mi
3:50 AM63 °FPassing clouds.5 mph88%30.01 "Hg4 mi
3:20 AM61 °FPassing clouds.6 mph94%30.01 "Hg5 mi
2:50 AM61 °FPassing clouds.3 mph94%30.01 "Hg5 mi
2:20 AM61 °FPassing clouds.3 mph94%30.01 "HgN/A
1:50 AM61 °FPassing clouds.5 mph94%30.01 "HgN/A
1:20 AM61 °FPassing clouds.5 mph88%30.01 "HgN/A
12:50 AM63 °FPassing clouds.3 mph94%30.01 "HgN/A
12:20 AM63 °FPassing clouds.5 mph88%30.01 "HgN/A
11:20 PM
Thu, Oct 8
63 °FPassing clouds.5 mph94%30.01 "HgN/A
10:50 PM63 °FPassing clouds.6 mph94%30.01 "HgN/A
10:20 PM63 °FPassing clouds.5 mph94%30.01 "HgN/A
9:50 PM63 °FPassing clouds.6 mph94%30.01 "HgN/A
9:20 PM64 °FPassing clouds.3 mph88%30.01 "HgN/A
8:50 PM64 °FPassing clouds.6 mph88%29.98 "HgN/A
8:20 PM66 °FPartly cloudy.5 mph88%29.98 "HgN/A
7:50 PM66 °FPartly cloudy.5 mph83%29.98 "HgN/A
7:20 PM66 °FPartly cloudy.3 mph83%29.95 "HgN/A
6:50 PM68 °FBroken clouds.8 mph78%29.95 "HgN/A
6:20 PM68 °FBroken clouds.8 mph78%29.95 "HgN/A
5:50 PM70 °FBroken clouds.8 mph73%29.95 "HgN/A
5:20 PM70 °FBroken clouds.8 mph73%29.95 "HgN/A
4:50 PM70 °FBroken clouds.10 mph69%29.92 "HgN/A
4:20 PM70 °FBroken clouds.12 mph69%29.92 "HgN/A
3:50 PM70 °FBroken clouds.10 mph69%29.92 "HgN/A
3:20 PM72 °FBroken clouds.10 mph69%29.92 "HgN/A
2:50 PM70 °FBroken clouds.12 mph69%29.92 "HgN/A
2:20 PM70 °FScattered clouds.8 mph73%29.92 "HgN/A
1:50 PM68 °FBroken clouds.10 mph78%29.92 "HgN/A
1:20 PM68 °FLight rain. Broken clouds.10 mph83%29.92 "HgN/A
Weather by CustomWeather, © 2015

See weather overviewHow to use our weather pages